Location: Asheville, NC
(35.6000°N, 82.5500°W)
Time: 04:25:31
(UTC-05:00)

HO-68 - Pass Details

Date: 11 January 2018
Orbit: 1192 x 1205 km, 100.1° (Epoch: 22 January)

Event Time Altitude Azimuth Distance (km) Brightness Sun altitude
Rises 06:12:49 0° 32° (NNE) 4,094 ? -17.4°
Reaches altitude 10° 06:16:21 10° 49° (NE) 3,126 ? -16.7°
Maximum altitude 06:21:18 20° 93° (E) 2,458 ? -15.7°
Drops below altitude 10° 06:26:14 10° 138° (SE) 3,118 ? -14.8°
Sets 06:29:42 0° 154° (SSE) 4,079 ? -14.1°
